KPOF

Details ICAO KPOF (POF)
Name POPLAR BLUFF MUNI
Region United States
Timezone America/Chicago (UTC-5.0)
Plans Departing 5
Arriving 6
Stats Elevation 331 ft / 101 m (AMSL)
Location 36.773935° -90.324855°
Runways 1
Magnetic Variation 1.302° W
Sunrise 2018-05-23 10:49:33 UTC / 2018-05-23 05:49:33 Local
Sunset 2018-05-24 01:09:27 UTC / 2018-05-23 20:09:27 Local
Advertisement - Login to hide

Runways

ID Width Length Bearing (true) Bearing (mag) Surface Threshold Offset Overrun Length
18 100 ft / 30 m 5,020 ft / 1,530 m 181.39° 182.69° Asphalt 0 ft / 0 m 0 ft / 0 m
36 100 ft / 30 m 5,020 ft / 1,530 m 1.39° 2.69° Asphalt 300 ft / 91 m 0 ft / 0 m

Approach Navaids

Runway Type Ident Frequency Range Bearing (true) Bearing (mag) Slope Elevation
36 Localiser IFDI 108.70 MHz 18 nm / 33 km 1.40° 2.70° - 327 ft / 100 m (AMSL)

Map

Weather


0- 5 10 15 20 25 30 35+ Temperature / ° C

Clouds and Precipitation
Forecast for 2018-05-23 18:00 UTC. Updated 15 minutes ago

Ground ~20,000 ft ~40,000 ft Winds

METAR

KPOF 231653Z AUTO 03005KT 10SM CLR 29/20 A3012 RMK AO2 SLP195 T02940200

TAF

Not found

Frequencies

Recorded 124.22 MHz ASOS
Unicom 123.00 MHz CTAF/UNICOM
Warning: Do not use this data for real-world aviation or navigation. No guarantee of current accuracy is given.